Location: Unspecified
(0.0000°N, 0.0000°E)
Time: 01:26:58
(UTC+00:00)

Vanguard 1 Rocket - Pass Details

Date: 28 November 2019
Orbit: 650 x 4226 km, 34.3° (Epoch: 10 December)

Event Time Altitude Azimuth Distance (km) Brightness Sun altitude
Rises 23:22:15 0° 266° (W) 6,618 11.9 -67.7°
Enters shadow 23:26:36 - 275° (W) 5,518 11.4 -68.0°
Reaches altitude 10° 23:29:46 10° 284° (WNW) 4,737 - -68.2°
Maximum altitude 23:36:14 16° 317° (NW) 3,477 - -68.4°
Drops below altitude 10° 23:41:01 10° 352° (N) 3,298 - -68.5°
Sets 23:44:46 0° 15° (NNE) 3,796 - -68.6°
